STARLINK-32786, 62528

Orbit data source: Space-Track

STARLINK-32786, 62528 is a payload satellite owned by SpaceX/Seattle (US) in LEO that was launched on Wed, 08 Jan 2025 UTC via an FALCON 9 launch vehicle from the Air Force Eastern Test Range (AFETR). Payload-class satellites include a variety of spacecraft equipped with specific instruments for various scientific and technological missions. These include communications satellites like Starlink; space stations such as the ISS; scientific satellites like the Hubble; Earth observation satellites from companies like Planet Labs, Umbra, and HawkEye 360; GPS; miniature CubeSats for education and research; and military/defense satellites.

Loading next visibility...
Identifier
62528, 2025-004T
Orbit
LEO
Country
Flag of USUS
Related business
Manufacturer
SpaceX/Seattle
Mission
Operational Commercial Communications
Bus & Motor
STARLINK V2M, Unknown motor
Mass
730 kg wet, ~700 kg dry
Launch date (UTC)
2025-01-08 (1 year ago)
Launch vehicle
FALCON 9
Launch site
Air Force Eastern Test Range (AFETR)
Object type
Payload
Rocket body
Debris
Shape & HBR
Box + 2 Pan, 17.7 m
Radar Cross Section
33.884 m², Large (>1 m²)

Expand to show TLE details & history
Last TLE update: 14 hours ago

TLE from 14 hours ago
0 STARLINK-32786
1 62528U 25004T   26125.70808282  .00030206  00000-0  11013-2 0  9994
2 62528  43.0009 257.4505 0001518 275.4719  84.5960 15.27620992 74230
Epoch: 2026-05-05T16:59Z
TLE epoch observation values (Epoch: 2026-05-05T16:59:38.355Z)
Latitude
0.00001°
Longitude
138.96165°
Altitude
482.604 km
Speed
7.626 km/s
True Right ascension
17h 09m 48s
True Declination
0° 00' 00"
Sunlit
Object was in full shadow at epoch
Visualization orbit readout
Latitude
Unknown
Longitude
Unknown
Altitude
Unknown
Speed
Unknown
Apparent Right ascension
Unknown
Apparent Declination
Unknown
Sunlit
N/A
Visualization observer readout
Local Sidereal Time
14:52:04
Azimuth
Unknown
Elevation
Unknown
Doppler factor
Unknown
Orbital elements
Apogee altitude
485.913 km
Perigee altitude
483.83 km
Semi-major axis
6,863.008 km
Eccentricity
0.00015
Inclination
43.0009°
RAAN
257.4505°
Arg. of periapsis
275.4719°
True anomaly
84.61332°
Mean anomaly
84.596°
Eccentric anomaly
84.60466°
Mean motion
3.81743 °/min
Orbital period
94.3 mins
BSTAR
0.0011013
Loading maneuver chart data...
Computing Atmospheric mass density...
Loading historical data...
Loading historical data...
Loading historical data...
Loading historical data...
Loading historical data...
Loading historical data...
Loading historical data...

Documentation

Showing up to 5 results
|